Preview of NWS' New Version of Forecast
This preview is not operational and should not be used for support decisions.

Regional Weather Roundup (RWR)

Issued by National Weather Service (NWS)

                            
000
ASCA42 TJSJ 201310
RWRPR 
PUERTO RICO/U.S. VIRGIN ISLANDS HOURLY WEATHER ROUNDUP
NATIONAL WEATHER SERVICE SAN JUAN PR
900 AM AST WED FEB 20 2019

PRZ001>002-007>008-010-201400-
PUERTO RICO
  
CITY           SKY/WX    TMP DP  RH WIND       PRES   REMARKS
SAN JUAN LMM   MOSUNNY   77  70  78 E14       30.13R                  
AGUADILLA      CLOUDY    72 N/A N/A E8        30.15R                  
CEIBA          CLOUDY    73  70  88 E9        30.14R                  
$$

VIZ001>002-201400-
U.S. VIRGIN ISLANDS
  
CITY           SKY/WX    TMP DP  RH WIND       PRES   REMARKS
CHARLOTTE AMA  CLOUDY    73  70  88 E13       30.11R                  
CHRISTIANSTED  PTSUNNY   82  70  65 E20G25    30.10R                  
$$

HOURLY WEATHER ROUNDUP FOR THE NEWS MEDIA
  
CITY           SKY/WX    TMP DP  RH WIND       PRES   REMARKS
ORLANDO        PTSUNNY   71  69  93 SE8       30.13R                  
NEW YORK       CLOUDY    27  11  51 NE7       30.63R WCI  19          
NEWARK         CLOUDY    27  10  49 N7        30.61R WCI  19          
CHICAGO        LGT SNOW  28  26  92 E16G23    29.96F FOG     WCI  16  
HARTFORD       FAIR      21   9  59 W6        30.60R WCI  13          
BOSTON         CLOUDY    23   6  48 W10       30.60R WCI  12          
DALLAS         CLOUDY    39  34  82 NW9       29.97R WCI  33          
PHILADELPHIA   CLOUDY    31  11  43 E6        30.60R WCI  25          
LOS ANGELES    MOCLDY    44  33  65 E6        30.04F                  
WASHINGTON DC  SNOW      29  26  89 E7        30.50S VSB 1/2 WCI  22